GW0755 Weather Reports


time (UTC)temp
F
wind
direction
speed
knots
gust
knots
rain 1hr
in
rain 24hr
in
rain mn
in
humidity
%
barometer
mb
20260503003053 82 60 3.5 10.4 0.00 0.00 0.00 89 1010.8
20260503001608 82 101 0.9 7.0 0.00 0.00 0.00 89 1011.2
20260503000113 82 101 4.3 7.8 0.00 0.00 0.00 89 1011.1
20260502234554 82 77 3.5 10.4 0.00 0.00 0.00 88 1010.8
20260502233048 83 110 7.0 11.3 0.00 0.00 0.00 87 1009.9
20260502231615 84 70 2.6 11.3 0.00 0.00 0.00 85 1009.5
20260502230051 84 101 6.1 16.5 0.00 0.00 0.00 83 1009.9
20260502224558 85 113 7.0 15.6 0.00 0.00 0.00 82 1009.8
20260502223056 86 110 6.1 19.1 0.00 0.00 0.00 81 1009.4
20260502221556 86 96 7.0 14.8 0.00 0.00 0.00 80 1009.1
20260502220051 86 96 7.8 13.9 0.00 0.00 0.00 79 1009.5
20260502214555 85 85 4.3 8.7 0.00 0.00 0.00 81 1010.2
20260502213052 85 126 5.2 10.4 0.00 0.00 0.00 80 1010.5
20260502211559 85 131 5.2 11.3 0.00 0.00 0.00 80 1010.6
20260502210054 87 88 2.6 11.3 0.00 0.00 0.00 78 1010.3
20260502204554 86 108 4.3 12.2 0.00 0.00 0.00 78 1010.4
20260502203052 86 87 6.1 14.8 0.00 0.00 0.00 78 1010.3
20260502201550 87 118 3.5 11.3 0.00 0.00 0.00 76 1010.3
20260502200050 87 94 5.2 13.0 0.00 0.00 0.00 77 1010.5
20260502194552 87 98 6.1 13.0 0.00 0.00 0.00 76 1010.6
20260502193104 87 181 6.1 13.0 0.00 0.00 0.00 76 1010.6
20260502191559 87 139 6.1 12.2 0.00 0.00 0.00 76 1010.7
20260502190050 88 94 3.5 11.3 0.00 0.00 0.00 74 1011.0
20260502184559 88 188 5.2 14.8 0.00 0.00 0.00 74 1011.0
20260502183048 88 120 6.1 14.8 0.00 0.00 0.00 76 1011.2
20260502181551 87 96 7.8 13.9 0.00 0.00 0.00 74 1011.6
20260502163052 86 95 7.0 16.5 0.00 0.00 0.00 77 1012.2
20260502161619 86 70 9.6 19.1 0.00 0.00 0.00 78 1012.2
20260502160118 86 86 7.0 18.2 0.00 0.00 0.00 78 1012.4
20260502151555 86 52 8.7 17.4 0.00 0.00 0.00 79 1012.3
20260502130110 83 81 7.0 13.0 0.00 0.00 0.00 83 1011.1
20260502123123 82 109 5.2 12.2 0.00 0.00 0.00 85 1011.0
20260502121553 81 104 5.2 10.4 0.00 0.00 0.00 87 1011.0
20260502120119 81 91 5.2 12.2 0.00 0.00 0.00 87 1010.8
20260502114558 80 110 3.5 13.0 0.00 0.00 0.00 88 1010.5
20260502113056 80 116 4.3 12.2 0.00 0.00 0.00 89 1010.4
20260502111555 80 89 1.7 7.0 0.00 0.00 0.00 89 1010.3
20260502110051 79 105 1.7 9.6 0.00 0.00 0.00 89 1010.1
20260502104549 80 167 2.6 7.0 0.00 0.00 0.00 90 1009.9
20260502103055 79 103 4.3 10.4 0.00 0.00 0.00 90 1009.4
20260502101555 79 45 1.7 12.2 0.00 0.00 0.00 89 1009.5
20260502070051 80 62 7.0 13.0 0.00 0.00 0.00 89 1009.9
20260502064555 80 89 3.5 9.6 0.00 0.00 0.00 89 1010.0
20260502063057 80 111 5.2 12.2 0.00 0.00 0.00 89 1010.0
20260502061551 80 38 3.5 7.8 0.00 0.00 0.00 89 1010.1
20260502060055 80 15 2.6 7.8 0.00 0.00 0.00 89 1010.3
20260502054551 80 71 1.7 9.6 0.00 0.00 0.00 89 1010.6
20260502053054 80 55 4.3 10.4 0.00 0.00 0.00 89 1010.8
20260502051551 80 105 3.5 8.7 0.00 0.00 0.00 89 1011.1
20260502050050 80 44 4.3 9.6 0.00 0.00 0.00 89 1011.2
20260502044551 80 74 2.6 6.1 0.00 0.00 0.00 89 1011.3
20260502043107 80 0 2.6 7.8 0.00 0.00 0.00 87 1011.5
20260502041555 80 99 6.1 13.9 0.00 0.00 0.00 87 1011.5
20260502040106 80 105 3.5 7.0 0.00 0.00 0.00 88 1011.5
20260502034549 80 110 4.3 8.7 0.00 0.00 0.00 87 1011.5
20260502033056 81 130 2.6 8.7 0.00 0.00 0.00 87 1011.4
20260502031550 81 141 5.2 10.4 0.00 0.00 0.00 87 1011.2
20260502030051 80 96 3.5 8.7 0.00 0.00 0.00 87 1011.0
20260502024609 80 109 3.5 8.7 0.00 0.00 0.00 88 1010.9
20260502023049 80 91 2.6 8.7 0.00 0.00 0.00 88 1010.8
20260502021603 81 76 4.3 13.0 0.00 0.00 0.00 87 1010.6
20260502020046 80 114 2.6 7.8 0.00 0.00 0.00 87 1010.6
20260502014547 81 112 1.7 6.1 0.00 0.00 0.00 87 1010.2
20260502013110 81 129 4.3 8.7 0.00 0.00 0.00 87 1010.1
20260502011549 81 136 0.9 8.7 0.00 0.00 0.00 87 1010.0
20260502010100 81 96 3.5 9.6 0.00 0.00 0.00 87 1009.6
20260502004603 81 68 4.3 11.3 0.00 0.00 0.00 86 1009.4